Regional Weather Roundup
Issued by NWS

Home | Current Version | Previous Version | Graphics & Text | Print | Product List | Glossary On
Versions: 1 2 3 4 5 6 7 8 9 10 11 12 13 14 15 16 17 18 19 20 21 22 23 24 25 26 27 28 29 30 31 32 33 34 35 36 37 38 39 40 41 42 43 44 45 46 47 48 49 50
221
ASUS43 KOAX 062210
RWRNE

WEATHER ROUNDUP FOR NEBRASKA
NATIONAL WEATHER SERVICE OMAHA NE
400 PM CST TUE DEC 06 2016

NOTES: SATELLITE DATA IS BEING USED TO AUGMENT CLOUD COVER ABOVE
       12000 FEET.
       "FAIR" INDICATES FEW OR NO CLOUDS BELOW 12,000 FEET WITH NO
       SIGNIFICANT WEATHER AND/OR OBSTRUCTIONS TO VISIBILITY.

  * THESE STATIONS DO NOT REPORT WEATHER SUCH AS RAIN...SNOW OR FOG.

NEZ001>004-019>022-054>056-062300-
NEBRASKA PANHANDLE

CITY           SKY/WX    TMP DP  RH WIND       PRES   REMARKS
SCOTTSBLUFF    CLOUDY    25   0  33 NW5       29.92S WCI  19
ALLIANCE       SUNNY     22   3  44 N13       29.92R WCI  10
CHADRON        SUNNY     22   3  44 W16       29.99S WCI   8
KIMBALL        CLOUDY    25  -2  31 CALM      29.89R
SIDNEY         PTSUNNY   27  -4  26 NE3       29.92S
$$

NEZ057>060-069>072-079>082-062300-
SOUTHWEST NEBRASKA

CITY           SKY/WX    TMP DP  RH WIND       PRES   REMARKS
NORTH PLATTE   SUNNY     34   2  25 NW10      29.98F WCI  26
IMPERIAL       MOSUNNY   31  -1  25 N5        29.98R WCI  26
LEXINGTON      SUNNY     35   6  29 NW12      29.99F WCI  26
MCCOOK         SUNNY     35   2  24 NW10      30.01R WCI  27
OGALLALA       SUNNY     31   3  30 N6        29.97S WCI  25
$$

NEZ005>010-023>029-035>040-094-062300-
NORTH CENTRAL NEBRASKA

CITY           SKY/WX    TMP DP  RH WIND       PRES   REMARKS
VALENTINE      CLEAR     22   4  46 NW15G28   29.99R WCI   9
AINSWORTH      CLEAR     24   4  43 NW23G31   29.98R WCI   8
BROKEN BOW     CLEAR     32   6  33 NW12      29.98S WCI  23
O`NEILL        CLEAR     26   6  43 NW23G29   29.99R WCI  11
ORD            CLEAR     31   1  28 NW15      30.00R WCI  20
THEDFORD       CLEAR     30   4  33 NW12      29.97R WCI  21
$$

NEZ041-046>049-061>064-073>077-083>087-062300-
SOUTH CENTRAL NEBRASKA

CITY           SKY/WX    TMP DP  RH WIND       PRES   REMARKS
GRAND ISLAND   CLEAR     33   7  33 NW13      30.02S WCI  24
AURORA         CLEAR     33   7  33 NW15      30.02S WCI  23
HASTINGS       CLEAR     34   7  32 NW13      30.03S WCI  25
HEBRON         CLEAR     35   9  33 NW8       30.05R WCI  29
HOLDREGE       SUNNY     34   4  28 W13       30.01R WCI  25
KEARNEY *      CLEAR     36   5  27 NW8       30.00F WCI  29
YORK           CLEAR     32   7  34 NW20      30.02S WCI  20
$$

NEZ011>018-030>034-042>045-062300-
NORTHEAST NEBRASKA

CITY           SKY/WX    TMP DP  RH WIND       PRES   REMARKS
NORFOLK        CLEAR     28   5  37 NW20G31   29.98R WCI  15
ALBION         CLEAR     31   2  29 NW15G21   30.00R WCI  20
BLAIR          CLEAR     32  12  43 W14G24    29.99R WCI  22
FREMONT        CLEAR     32  11  41 W22       30.01S WCI  20
TEKAMAH        CLEAR     32  12  43 W21G29    29.99R WCI  20
WAYNE          CLEAR     29   9  44 W20       29.97R WCI  16
$$

NEZ050>053-065>068-078-088>093-062300-
SOUTHEAST NEBRASKA

CITY           SKY/WX    TMP DP  RH WIND       PRES   REMARKS
LINCOLN        CLEAR     35   8  32 NW14      30.05R WCI  26
OMAHA EPPLEY   CLEAR     33  10  38 NW17      30.00R WCI  22
BEATRICE       CLEAR     36  12  37 NW10      30.04S WCI  28
FALLS CITY     CLEAR     37  13  37 NW12      30.05R WCI  29
NEBRASKA CITY  CLEAR     34   5  29 NW15      30.03R WCI  24
PLATTSMOUTH    CLEAR     33   4  30 W14G23    30.01R WCI  23
$$

NEZ044-045-051>053-067-062300-
OMAHA AREA

CITY           SKY/WX    TMP DP  RH WIND       PRES   REMARKS
OMAHA EPPLEY   CLEAR     33  10  38 NW17      30.00R WCI  22
BLAIR          CLEAR     32  12  43 W14G24    29.99R WCI  22
FREMONT        CLEAR     32  11  41 W22       30.01S WCI  20
MILLARD        CLEAR     33  11  40 NW14      30.01S WCI  24
PLATTSMOUTH    CLEAR     33   4  30 W14G23    30.01R WCI  23
WAHOO          FAIR      33   9  36 W18       30.02S WCI  22
$$




USA.gov is the U.S. government's official web portal to all federal, state and local government web resources and services.